256P/LINEAR (2023)

Japanese version
Home page
Updated on February 5, 2022

---------------------------------------------------------------------

* Profile

* Orbital Elements

Epoch 2022 Jan. 21.0 TT = JDT 2459600.5
T 2023 Mar. 12.38133 TT                                 Rudenko
q   2.6997581            (2000.0)            P               Q
n   0.09865217     Peri.  124.22538     -0.80889272     +0.36825094
a   4.6387215      Node    81.34525     -0.56150196     -0.71504065
e   0.4179952      Incl.   27.62149     +0.17437926     -0.59422901
P   9.99
From 187 observations 2003 Jan. 27-2022 Jan. 31, mean residual 0".9.

* Magnitudes Graph

        m1 = 12.8 + 5 log d + 10.0 log r

---------------------------------------------------------------------

The orbital elements are published on M.P.E.C. 2022-C56.
The magnitudes graphs are made with Comet for Windows.

---------------------------------------------------------------------

Copyright(C) Seiichi Yoshida (comet@aerith.net). All rights reserved.